Wind_Speed
20 20 19 19 18 18 18 18 19 21 22 22 20 19 19 19 19 18 17 16 16 16 17 18 19 18 18 17 17 17 17 18 19 19 19 19 19 20 21 21 22 22 22 23 24 25 26 27 28 29 30 30 31 31 31 31 31 31 30 30 30 31 31 32 33 33 34 35 36 37 37 38 38 39 40 40 41 43 44 45 44 42 41 41 42
20 20 20 19 18 18 18 18 19 20 22 22 20 19 20 20 20 19 19 18 17 17 18 19 19 18 17 17 17 18 19 19 20 20 20 20 21 21 22 22 22 23 23 24 24 26 27 27 28 29 30 31 31 31 31 30 30 30 30 30 30 31 32 32 33 33 34 35 36 37 38 38 39 39 39 40 41 42 44 45 44 42 41 41 41
20 20 20 19 18 18 18 18 19 20 22 23 21 20 20 21 21 21 20 19 18 18 19 19 18 18 18 18 18 19 20 20 21 22 22 22 22 23 23 23 23 23 24 25 25 27 28 28 29 29 29 30 31 31 31 30 29 29 30 30 31 31 32 33 33 34 34 35 36 38 39 39 39 39 39 40 41 42 43 44 44 43 41 40 41
20 19 20 19 18 17 18 18 19 20 22 23 22 21 21 21 22 21 20 19 18 18 19 18 18 18 18 19 19 20 21 22 22 23 23 23 24 24 24 24 24 25 25 26 27 28 29 29 29 29 29 30 31 31 31 29 29 29 30 30 31 32 33 33 34 33 34 35 36 37 39 39 40 40 39 40 41 41 42 43 43 42 41 41 41
19 18 19 19 18 18 19 19 20 21 22 23 22 21 20 20 20 20 20 19 18 18 19 18 18 19 19 20 20 21 22 23 24 24 24 25 25 26 26 26 25 26 26 27 28 29 29 30 30 30 30 30 31 31 31 30 29 29 30 31 32 33 33 34 34 34 34 35 36 37 38 40 40 40 40 39 40 41 41 42 43 42 41 40 40
18 18 19 19 18 19 20 20 20 21 22 22 22 21 20 20 20 20 20 19 18 19 19 19 19 20 20 21 21 22 23 24 25 26 26 26 27 27 27 27 27 27 27 28 29 30 30 31 31 31 30 30 31 32 31 30 30 30 30 31 32 33 34 34 34 34 34 35 36 37 38 39 40 40 40 40 40 40 40 41 42 41 40 40 40
18 18 20 20 19 20 21 21 21 21 21 21 21 20 19 19 19 19 19 18 19 19 19 19 20 21 21 22 23 24 25 26 27 27 28 28 29 29 28 28 28 28 29 30 30 31 31 31 32 32 31 31 31 32 32 31 31 30 31 31 32 33 34 35 35 35 35 35 36 37 38 39 40 40 40 40 40 40 40 40 40 40 40 39 39
19 19 22 21 20 21 21 21 21 21 21 21 20 19 18 18 18 18 19 19 19 19 19 20 21 22 23 24 25 26 27 28 29 29 30 30 30 30 30 29 29 29 30 31 31 32 32 32 32 32 32 31 31 32 32 32 31 31 31 32 33 34 35 35 36 36 36 37 37 38 38 39 40 40 40 40 39 39 40 40 41 41 40 40 40
21 21 22 22 21 22 22 21 21 21 20 19 18 17 17 17 17 18 19 20 20 20 21 22 23 24 25 26 27 28 29 29 30 31 32 32 32 32 31 31 30 30 31 32 33 33 34 33 33 33 33 31 31 32 32 32 32 32 32 33 33 35 36 36 37 37 37 38 38 39 39 39 40 40 40 40 40 39 39 40 41 42 42 41 40
23 22 22 22 21 21 21 22 22 21 20 18 17 16 16 17 17 18 19 21 22 22 23 24 25 26 27 28 28 29 30 30 31 32 33 33 34 34 33 33 32 32 32 33 34 35 34 34 33 34 34 33 32 32 32 33 33 33 33 34 34 36 36 37 38 38 39 39 40 40 40 40 40 40 40 40 40 39 39 39 40 42 42 42 41
23 22 22 22 21 21 21 21 21 20 18 17 16 16 17 17 17 18 19 21 23 24 25 26 27 28 28 29 29 30 30 31 32 33 34 34 35 35 35 34 33 33 34 34 35 36 35 35 34 34 34 34 33 33 33 33 34 34 34 35 35 36 37 38 39 40 41 41 41 41 42 41 41 41 40 39 39 39 39 40 41 41 42 43 42
22 21 21 21 21 21 21 20 19 18 17 16 16 17 17 17 18 19 20 21 23 25 26 27 29 29 29 30 31 32 32 32 33 34 34 35 36 36 37 36 35 35 35 35 36 37 37 36 35 35 35 35 35 34 34 34 35 35 35 36 36 37 38 39 41 42 42 42 43 43 43 43 42 41 40 39 40 40 41 41 41 42 43 43 43
21 20 21 21 21 21 20 19 17 16 16 16 17 18 18 19 20 21 21 21 23 25 27 28 30 31 31 32 33 33 33 33 34 35 35 36 37 38 38 37 37 37 37 37 38 38 38 37 36 36 35 36 36 36 35 36 36 37 37 37 38 39 40 41 43 44 44 43 44 44 44 44 43 42 41 41 42 42 42 41 41 42 42 43 43
19 19 20 20 20 20 19 18 16 15 16 18 19 19 20 21 22 21 21 22 23 25 27 28 31 32 33 34 35 35 34 35 36 36 36 37 38 38 39 38 38 39 39 39 39 39 38 37 37 36 36 36 37 37 36 37 38 38 38 39 40 40 41 43 45 46 44 44 44 44 44 44 44 43 43 44 44 44 43 42 41 41 42 43 43
20 19 19 19 20 20 20 18 17 17 18 20 21 21 22 22 22 22 23 23 25 26 27 28 30 31 32 34 36 37 38 38 39 40 39 39 39 39 38 39 40 39 40 42 42 40 38 38 38 37 36 37 38 38 38 38 39 40 40 41 42 42 44 46 47 47 46 45 45 45 45 45 45 45 45 45 46 45 43 42 40 40 41 42 43
21 21 20 20 21 22 21 20 20 21 22 22 23 23 24 23 23 24 25 25 26 26 27 28 29 30 32 34 36 39 42 43 43 43 42 41 41 40 38 38 40 41 43 44 41 38 37 38 37 37 37 38 39 39 39 39 40 41 41 42 43 44 46 47 47 47 47 46 46 46 46 46 46 45 45 46 45 44 43 41 40 40 40 41 42
24 24 23 22 22 23 23 22 23 24 24 25 25 25 25 25 25 25 26 26 26 26 26 27 28 29 31 32 33 37 42 45 46 46 46 46 45 42 39 38 39 41 42 42 39 37 37 38 37 37 38 38 39 39 40 40 41 41 42 43 44 45 46 47 47 48 48 48 47 46 45 46 45 44 44 45 45 44 43 41 40 40 40 41 42
27 27 26 24 24 25 26 26 26 26 26 27 27 26 26 26 26 26 26 26 26 26 26 27 27 28 30 31 32 34 37 40 40 40 42 45 44 40 38 38 38 40 42 43 40 38 37 38 37 37 38 38 39 40 41 41 42 42 42 43 44 45 47 48 49 49 49 48 47 46 45 45 44 43 44 44 44 44 43 41 40 40 41 41 42
29 28 28 27 27 27 29 29 28 28 29 29 28 27 26 26 26 26 26 26 26 26 26 27 27 28 30 31 31 31 32 33 33 33 34 35 34 34 36 37 38 41 41 39 35 33 35 37 38 38 38 38 40 41 41 42 43 43 43 44 45 46 47 48 51 51 49 47 47 45 44 44 43 43 43 44 43 43 42 41 40 41 42 42 42
30 29 29 29 29 29 30 30 30 30 30 30 28 27 26 26 26 26 26 26 26 26 26 27 28 28 29 30 31 31 32 34 34 34 33 31 29 31 34 36 37 37 32 30 29 31 34 36 36 37 38 39 40 41 42 42 43 44 44 44 45 46 48 50 53 52 47 46 46 44 43 42 42 42 42 42 42 42 42 41 41 41 42 42 42
32 30 30 29 30 30 30 30 30 30 30 29 28 27 27 27 26 26 25 25 25 26 28 29 29 30 31 32 32 32 33 35 36 35 33 31 30 32 34 36 37 33 28 28 30 32 33 35 35 36 38 40 41 42 42 43 45 46 46 46 47 48 49 52 53 50 46 45 44 42 41 41 40 40 40 40 41 41 40 41 41 41 42 42 42
31 30 29 28 28 28 29 29 29 29 29 29 28 26 26 26 25 25 25 25 26 28 30 32 33 34 35 34 34 33 34 35 36 36 34 32 32 33 34 36 37 33 30 31 31 32 33 35 36 37 38 40 41 42 43 44 45 46 45 46 46 46 48 51 50 47 45 44 42 40 40 40 39 38 38 38 39 39 39 40 40 41 42 43 43
28 27 27 26 26 27 28 28 29 29 28 28 27 26 26 26 26 27 28 29 30 32 34 35 36 37 37 36 36 37 36 35 35 35 35 34 34 35 35 35 34 31 30 31 32 33 34 36 38 38 39 40 41 42 43 43 42 42 41 42 43 43 45 47 46 45 44 43 41 39 38 38 38 37 37 37 38 38 38 38 39 40 41 42 43
24 24 24 24 25 26 27 27 27 28 28 28 28 28 28 29 30 31 32 33 34 35 36 37 38 38 38 38 38 38 37 35 34 34 35 35 35 35 33 31 30 29 30 32 34 35 35 37 39 40 40 41 42 43 43 43 42 41 41 42 42 42 42 43 44 44 43 41 39 38 37 37 37 36 36 36 37 37 37 37 38 39 40 41 42
21 21 22 23 24 24 25 26 27 27 28 29 30 30 31 32 34 35 35 36 37 38 38 38 39 38 38 39 38 38 37 35 33 33 36 36 36 34 32 32 32 32 33 33 34 35 36 37 39 41 41 42 43 44 44 43 42 41 42 42 42 40 40 41 43 43 42 40 39 37 37 37 36 36 35 35 36 36 36 36 37 37 38 39 40
21 21 22 23 24 25 26 27 28 29 30 31 32 33 34 36 37 37 37 38 38 38 37 37 37 37 37 37 36 36 36 34 33 35 38 37 35 33 33 33 33 33 33 33 33 34 34 34 36 39 41 42 43 43 43 42 42 41 42 42 41 40 40 42 43 43 41 40 38 37 36 36 35 35 35 34 35 35 35 34 35 36 37 37 39
22 23 23 25 26 27 28 29 30 31 32 33 34 34 35 37 38 38 37 38 37 36 35 34 34 35 36 36 35 36 36 35 35 36 37 36 33 32 32 32 32 32 32 32 32 32 31 31 32 35 37 39 41 41 41 41 41 41 41 42 42 42 41 42 43 43 42 40 38 36 36 36 35 34 33 34 34 34 34 34 34 35 36 37 37
24 25 26 27 28 29 30 31 31 32 32 33 34 34 35 37 38 37 37 37 37 35 35 35 35 35 35 35 35 35 35 34 34 35 35 34 33 32 31 30 31 31 32 33 34 34 33 32 33 34 34 35 36 37 38 40 41 42 43 43 43 42 42 42 44 44 43 41 38 36 35 35 35 33 32 33 33 33 33 33 33 34 35 36 36
25 26 28 29 30 31 32 32 32 33 34 35 35 36 37 37 38 37 36 36 36 35 35 35 35 34 34 35 34 34 33 32 33 34 34 34 34 34 32 32 33 35 36 37 37 37 36 35 35 35 35 34 34 35 37 39 41 44 45 45 43 43 43 44 45 45 44 41 38 35 34 34 34 33 32 32 33 33 32 32 32 33 35 35 35
25 27 28 30 31 31 32 32 33 33 34 35 36 36 37 37 37 36 36 35 35 35 34 34 33 33 33 33 33 33 33 33 34 35 36 35 35 35 35 35 36 37 38 38 38 38 38 38 38 37 37 36 35 35 37 38 40 43 45 45 44 43 43 44 45 45 43 41 38 35 34 34 34 33 32 32 32 32 32 31 31 32 34 34 34
27 28 30 31 31 32 32 33 33 33 34 35 35 35 35 36 36 34 34 34 34 33 33 33 33 33 33 33 33 33 34 34 35 36 36 35 35 35 36 36 37 37 38 39 39 38 39 39 39 40 40 39 37 36 37 38 40 43 45 45 44 42 42 44 45 44 42 40 37 35 34 33 33 33 32 31 31 32 32 31 31 31 33 33 33
29 30 31 32 32 33 33 34 34 34 33 34 34 33 33 34 34 33 32 32 32 32 32 32 32 33 33 34 34 34 34 35 36 36 36 36 36 36 36 37 37 38 39 39 38 38 38 38 38 39 39 38 38 37 36 38 40 43 44 44 44 42 42 43 44 42 40 39 37 35 34 33 33 33 32 31 31 31 31 31 30 30 31 32 32
31 32 33 34 34 34 34 34 34 33 32 32 32 31 31 32 33 32 31 32 33 33 33 33 33 34 34 34 35 35 35 36 36 36 36 36 36 36 36 37 37 37 38 38 37 37 37 37 36 36 36 36 36 37 36 36 38 40 42 43 44 44 44 44 42 39 38 38 37 35 34 34 33 33 33 32 31 31 31 30 30 30 30 31 32
33 34 35 36 36 35 35 34 33 32 31 31 30 30 30 31 32 33 33 33 33 33 33 34 35 34 34 34 35 35 36 36 36 36 37 36 36 36 36 36 36 37 37 37 37 36 36 36 35 35 35 35 35 36 37 37 37 38 39 41 42 43 44 44 42 38 37 38 38 36 35 34 33 33 33 32 32 32 32 31 30 30 30 31 32
35 36 37 37 36 35 34 33 33 33 33 32 32 32 32 32 33 34 34 34 34 33 34 35 34 32 31 33 34 35 36 37 36 36 36 36 36 36 36 36 37 37 37 37 37 37 37 37 36 36 36 36 36 36 38 39 39 39 39 40 40 42 45 45 43 39 37 38 39 37 35 34 34 34 34 33 32 32 32 32 31 31 31 31 31
36 37 37 37 36 35 34 34 34 34 34 34 34 34 34 34 33 33 34 34 33 33 33 34 33 30 30 33 36 37 37 36 36 36 36 36 37 37 37 37 38 38 38 38 38 38 38 39 39 38 38 38 38 38 39 39 38 38 38 39 41 43 45 46 45 42 39 38 39 38 35 34 34 35 35 34 33 32 32 32 31 31 31 31 31
35 36 36 36 36 35 35 35 35 35 35 35 35 35 35 34 33 33 33 33 33 32 32 33 33 32 32 34 36 37 36 36 36 36 37 37 37 38 38 38 39 39 39 39 39 39 40 40 41 40 40 40 40 40 39 38 37 36 37 39 41 42 43 43 43 43 41 39 38 37 35 35 35 36 36 36 34 33 32 32 31 31 31 31 31
33 33 33 34 34 34 34 35 35 36 36 36 36 35 35 34 33 32 32 32 32 32 32 32 32 32 33 34 35 36 37 36 36 37 38 38 38 38 38 39 40 40 40 40 40 40 41 41 41 41 41 41 40 40 39 38 38 38 40 41 42 43 43 42 41 41 40 38 36 36 35 35 36 37 37 37 35 34 32 31 31 31 31 31 31
33 33 33 33 33 33 34 35 36 36 36 35 35 34 33 33 32 32 31 32 32 32 33 32 32 33 35 35 36 36 37 37 37 37 38 38 38 39 39 40 41 41 41 41 41 41 41 41 42 42 42 41 41 39 39 39 40 40 41 42 42 42 43 42 40 39 38 36 35 35 34 34 35 36 37 37 36 35 33 32 31 31 31 30 31
35 35 35 35 35 35 35 35 35 35 34 33 33 33 32 32 32 32 32 32 32 32 32 32 31 32 34 35 36 36 36 36 37 38 39 39 40 41 41 41 42 42 43 43 43 42 43 42 42 42 42 42 41 39 39 39 39 40 40 39 39 39 40 40 38 37 36 34 34 34 34 34 35 35 36 36 36 35 34 33 31 31 30 30 30
36 36 35 36 36 35 34 33 33 32 32 31 31 31 32 32 32 32 31 31 31 32 32 32 32 33 34 35 36 37 37 37 39 40 40 41 42 42 43 43 43 44 44 45 45 44 44 44 43 43 42 42 41 40 39 39 39 38 37 36 36 36 36 35 34 34 33 33 33 33 34 33 33 34 35 36 36 35 34 33 32 31 31 31 30
35 35 34 34 33 32 31 31 31 30 30 30 30 31 31 31 31 31 32 32 33 33 34 34 35 35 35 36 37 38 39 39 40 41 41 43 44 45 45 46 46 46 46 46 46 46 46 45 44 44 43 43 42 41 40 39 40 39 38 37 36 35 35 33 31 31 31 31 32 32 33 32 32 34 35 35 35 35 34 33 32 32 31 31 31
32 32 31 31 30 30 30 30 30 29 30 30 30 30 31 31 32 32 33 34 34 35 36 36 36 37 37 37 39 40 41 42 43 43 43 44 45 46 46 47 47 46 45 45 45 45 45 45 44 44 43 43 43 42 40 40 40 40 39 37 36 35 34 33 30 29 29 30 31 31 32 32 33 34 35 34 35 35 34 33 33 32 32 32 31
29 29 29 29 29 29 29 29 29 29 30 30 31 31 31 32 33 33 34 35 35 36 36 37 38 39 39 40 41 42 43 43 44 44 43 44 44 44 45 45 45 44 42 42 41 42 42 42 42 42 42 42 42 41 41 40 40 40 38 37 36 35 33 31 29 28 29 30 31 31 32 33 34 34 34 34 34 34 33 33 33 33 32 32 31
29 29 28 28 28 28 29 29 29 30 30 31 32 32 32 33 33 34 34 35 36 37 38 39 40 40 40 40 40 40 41 41 41 41 41 42 42 42 42 43 42 41 39 39 38 39 39 39 39 39 39 39 39 40 40 39 38 37 36 36 35 33 31 29 28 28 29 31 32 33 34 33 34 34 34 33 34 34 33 32 32 33 32 32 31
29 29 28 28 28 28 29 29 30 31 31 31 31 32 32 33 34 35 36 37 38 38 39 39 38 38 37 37 37 38 38 39 39 39 40 40 41 40 41 41 40 39 37 36 36 37 37 38 38 37 37 37 37 37 37 36 35 34 34 34 34 33 32 31 30 30 31 32 33 34 34 33 33 34 34 33 33 33 32 32 32 33 32 32 32
29 28 28 29 29 30 30 30 30 30 31 31 31 32 33 34 36 37 37 37 36 36 35 35 35 34 34 34 34 35 36 37 37 38 39 39 39 39 39 39 38 37 37 37 37 37 37 38 38 37 37 37 37 36 36 35 35 34 35 36 36 35 33 32 31 32 32 33 33 34 34 34 34 34 33 33 32 32 31 31 32 32 32 32 32
29 28 28 28 29 30 31 30 30 30 31 32 32 33 34 34 34 35 34 33 32 31 31 31 31 31 31 32 32 33 34 34 35 36 36 37 37 37 38 39 39 39 39 39 39 38 38 38 38 38 38 37 37 37 36 36 36 37 37 36 34 33 32 31 31 32 32 33 33 34 34 33 32 32 32 32 31 31 30 30 30 31 31 31 32
30 29 28 28 28 29 30 31 32 32 33 33 33 33 32 31 30 30 30 29 28 28 28 28 29 29 29 29 30 30 31 31 31 31 31 31 32 33 34 35 35 35 35 36 36 36 36 36 36 37 37 36 36 36 36 35 35 36 35 32 30 30 30 31 31 31 31 32 32 32 32 31 30 30 30 30 29 29 29 29 29 30 31 31 32
30 29 29 29 29 29 31 32 32 33 33 32 31 30 29 28 26 26 26 25 25 26 26 26 26 26 26 26 26 26 26 26 26 26 26 26 27 27 28 28 29 30 31 32 33 34 34 34 34 34 34 34 34 34 34 34 33 33 32 30 30 31 31 31 30 30 31 31 32 32 32 31 30 29 28 28 28 28 28 28 28 30 31 32 32
29 30 30 31 31 31 31 31 31 31 30 29 28 27 26 24 24 24 24 24 24 24 24 24 24 24 24 24 24 24 24 24 24 25 25 26 26 26 27 27 28 29 30 31 31 31 31 31 31 31 31 32 32 32 32 32 32 32 31 31 31 31 31 31 31 31 31 32 32 32 32 31 31 30 29 29 28 28 27 27 28 30 31 31 32
Wind_Direction
259 263 267 272 276 279 280 280 281 281 281 282 283 281 278 271 266 265 267 267 265 264 263 264 264 262 258 253 251 255 259 261 262 262 265 270 276 283 288 293 296 299 304 308 313 318 320 320 320 322 326 327 327 327 328 328 328 329 328 327 326 325 326 327 329 330 331 332 332 331 331 331 332 334 337 340 341 343 343 342 340 337 335 335 334
260 263 266 270 274 277 278 278 278 279 280 280 280 279 276 271 269 272 273 271 267 263 261 261 259 255 251 250 253 257 261 262 262 262 266 271 277 282 287 291 295 299 303 308 314 318 320 320 320 321 324 326 327 327 327 328 329 329 328 327 325 325 326 327 328 329 331 332 332 332 331 332 333 335 337 340 342 343 344 343 341 339 337 335 334
260 262 265 269 273 275 276 276 276 276 277 278 278 277 275 273 274 275 273 267 262 260 259 256 252 249 248 251 256 261 263 262 262 263 266 271 276 281 286 289 293 298 303 307 312 316 318 319 319 319 322 325 326 326 326 328 329 329 328 325 324 324 325 327 327 328 330 331 332 332 333 333 334 336 337 340 342 343 344 343 342 340 338 336 334
260 261 264 267 271 274 274 275 276 275 274 276 277 277 276 276 277 274 268 262 259 257 255 252 249 247 249 254 259 263 264 263 263 263 266 270 275 280 285 288 292 297 301 305 309 312 316 317 317 317 319 323 325 325 326 328 329 328 327 325 324 324 325 326 327 327 328 330 332 333 334 334 334 336 338 340 342 343 344 343 342 340 338 335 333
260 261 263 267 270 271 272 274 275 274 273 274 276 279 280 280 278 273 265 260 257 254 252 249 248 249 253 258 263 266 266 265 264 264 267 270 274 279 284 287 292 296 299 303 306 310 313 315 315 315 316 321 323 324 326 327 327 327 326 325 325 324 324 324 325 326 327 328 331 332 334 334 334 335 337 339 342 343 344 343 342 340 338 335 332
259 262 264 266 268 268 270 273 274 273 273 273 275 279 281 283 281 273 264 259 256 253 252 250 251 254 259 265 269 270 269 268 266 266 268 271 274 278 283 287 291 295 298 300 304 308 311 313 313 313 314 317 321 323 325 326 326 325 325 325 325 323 322 322 324 325 326 326 328 331 332 334 334 335 337 339 340 342 344 344 342 339 337 335 332
258 262 263 264 265 266 269 272 273 272 271 272 274 277 280 284 283 274 264 260 258 256 255 255 257 262 267 271 274 274 273 271 269 269 270 272 274 277 282 286 290 293 296 298 302 306 309 310 310 311 311 314 319 322 324 325 324 323 323 325 325 324 323 322 323 324 325 325 326 328 330 333 334 334 336 338 339 341 344 344 342 339 337 336 334
257 261 262 263 264 265 267 270 271 271 269 269 271 274 278 282 281 273 265 262 262 263 264 264 266 269 272 275 276 276 276 275 272 271 271 272 275 278 282 286 289 291 294 296 300 304 307 307 308 309 309 310 315 319 321 323 322 321 321 323 324 325 324 324 325 324 324 324 324 326 328 331 332 333 335 337 338 340 342 343 342 341 340 338 336
256 260 262 264 264 264 266 268 269 269 266 265 267 270 275 278 278 272 266 265 267 268 268 269 270 272 274 276 277 278 278 277 275 274 273 274 276 279 282 284 286 289 291 295 298 301 304 305 306 307 307 307 311 315 318 320 321 320 320 321 322 324 325 326 327 326 325 324 323 324 326 328 330 332 333 334 336 338 340 342 342 342 342 340 338
255 259 262 263 263 264 266 268 268 267 264 263 264 265 269 273 274 271 268 267 267 267 268 269 271 273 274 276 278 278 279 279 277 276 275 276 277 278 280 282 285 287 290 293 295 299 302 303 303 304 305 305 307 311 314 317 319 318 318 319 320 321 324 327 329 328 326 324 322 322 323 325 328 330 331 333 335 336 338 341 342 342 342 342 340
256 260 262 264 264 265 267 268 267 265 264 263 262 262 265 268 271 272 270 268 268 269 270 270 271 272 274 275 277 277 277 278 276 276 276 277 277 278 279 281 283 285 288 291 293 296 299 301 301 302 302 303 304 306 310 314 315 316 316 317 319 320 322 325 327 327 326 325 323 321 321 322 325 327 329 331 333 333 336 340 342 342 342 342 342
256 259 262 264 265 265 266 266 264 264 265 264 262 261 263 265 267 268 268 269 271 272 272 271 272 272 273 273 274 274 275 276 275 276 276 276 277 277 279 281 283 285 286 289 291 294 297 299 299 299 300 301 301 303 307 310 312 312 313 315 316 318 320 322 323 324 324 324 324 322 321 321 321 323 326 329 329 331 336 340 340 340 341 342 342
255 259 262 264 265 265 264 263 262 263 263 262 261 259 260 261 263 265 268 272 273 273 272 272 271 272 273 273 272 272 273 273 274 275 276 277 277 278 280 282 283 284 286 287 288 291 294 297 297 297 298 299 299 301 303 306 308 309 311 313 314 315 316 319 321 321 320 321 323 323 321 319 319 320 323 324 327 331 336 338 338 339 340 341 341
253 256 261 265 266 265 263 261 261 260 258 256 256 256 257 261 264 267 269 270 271 271 271 271 272 273 274 273 272 272 272 273 274 275 276 276 277 279 281 283 284 285 285 286 286 288 291 294 295 296 296 297 297 299 301 303 305 306 309 310 311 312 314 316 319 319 318 319 320 321 320 319 318 319 319 322 326 331 334 334 336 338 340 341 341
251 256 262 267 267 265 262 260 258 255 253 253 254 257 260 264 266 267 267 267 267 269 271 272 275 276 277 275 274 274 274 275 277 277 276 277 278 279 281 284 285 285 285 284 284 285 288 292 293 294 295 295 295 297 299 301 302 304 307 309 310 311 313 315 318 318 318 317 317 318 319 320 320 319 320 322 327 331 332 332 335 338 339 340 341
252 258 264 266 266 265 262 258 255 254 254 255 256 258 262 265 266 267 267 268 269 271 274 276 279 281 282 282 280 278 277 278 279 279 280 281 280 278 282 288 290 290 290 287 284 285 288 290 292 293 293 292 293 296 297 298 300 302 305 307 309 311 312 315 317 317 316 316 315 316 318 321 321 322 322 323 326 329 330 331 334 337 338 339 341
256 260 265 265 263 263 261 256 254 255 256 255 256 260 263 265 267 268 270 272 274 277 279 282 284 286 286 287 286 283 281 280 280 282 285 287 286 282 284 293 296 294 293 290 287 290 291 289 290 292 290 290 292 294 296 297 298 301 303 305 307 309 311 313 315 316 316 315 313 314 317 320 322 323 324 324 325 328 329 330 333 336 337 340 341
261 263 265 264 261 260 260 259 258 257 256 256 258 263 265 267 270 272 273 276 277 279 281 283 286 288 289 292 293 291 288 286 286 290 291 291 292 288 286 292 298 297 293 289 289 291 288 286 288 289 288 289 291 293 295 296 297 300 302 304 306 308 310 312 312 313 313 312 312 313 315 318 321 323 324 324 326 328 329 330 332 335 338 340 341
264 264 265 264 262 261 263 264 261 258 258 259 262 265 267 269 271 272 273 275 277 278 280 281 284 287 290 294 296 296 295 293 294 299 299 295 293 290 287 292 299 299 294 288 286 286 285 287 289 289 288 289 291 293 295 296 297 299 301 303 305 307 309 310 310 311 311 310 310 312 314 317 320 322 323 325 326 328 329 330 332 336 339 339 339
265 266 267 267 265 264 265 264 262 261 261 263 265 266 266 267 268 270 273 275 277 278 278 279 283 287 289 291 292 294 295 295 296 299 301 299 293 289 289 294 300 300 291 283 284 287 288 290 290 288 288 289 290 293 295 295 297 298 300 303 304 306 308 308 308 310 310 308 308 311 313 315 319 322 324 325 326 328 330 331 333 336 337 338 339
267 268 268 268 266 265 264 263 263 263 263 264 265 265 265 266 268 271 274 276 278 279 280 282 285 287 286 286 287 290 291 293 295 297 299 298 295 293 293 296 300 298 285 279 288 293 291 289 287 285 285 287 290 293 294 296 296 296 297 300 302 304 306 307 308 311 310 306 307 309 312 315 318 321 323 324 326 327 330 331 332 334 336 338 339
269 268 266 266 264 262 260 260 260 260 260 261 263 264 266 268 271 272 274 276 278 280 283 286 287 287 287 286 287 289 289 290 293 296 296 295 294 294 294 295 298 296 284 280 289 295 293 289 286 283 285 288 291 294 296 297 297 298 300 303 305 306 307 308 310 312 311 308 307 308 311 315 318 320 322 323 324 326 329 329 331 334 336 338 339
263 262 261 260 259 257 256 256 257 258 259 260 262 264 266 268 270 273 275 277 280 282 284 287 288 289 289 288 287 288 288 288 291 293 293 292 293 294 294 294 295 293 286 283 288 293 293 289 285 283 287 291 294 295 296 298 299 300 303 306 307 308 308 310 312 313 310 308 306 307 311 314 317 320 322 322 323 325 327 328 330 333 335 337 339
253 253 254 254 254 254 254 255 256 258 259 261 263 265 268 271 273 275 278 280 283 285 286 287 289 289 289 287 286 287 288 289 289 288 287 289 291 292 292 291 290 288 287 287 290 292 292 288 285 284 287 291 294 295 295 297 299 301 303 304 305 307 308 310 312 311 309 307 305 306 310 313 316 318 320 321 323 324 325 326 329 331 334 337 339
244 245 246 248 249 251 252 254 257 259 262 264 267 269 272 275 277 279 282 284 285 286 287 289 289 289 288 287 287 288 289 289 287 285 286 289 291 291 289 287 288 289 291 291 292 293 292 289 286 285 285 288 290 292 294 295 297 300 303 304 305 305 306 308 310 310 307 304 303 305 309 311 314 316 318 320 322 322 322 325 327 329 332 336 338
242 241 243 245 247 250 253 256 259 262 265 268 271 274 276 279 281 283 284 285 285 286 288 288 288 288 288 288 286 287 289 288 285 284 286 289 290 290 289 288 291 293 294 294 295 297 297 295 291 289 289 289 289 290 292 293 295 299 302 303 303 303 304 306 308 307 305 302 301 304 307 309 312 314 317 319 320 319 321 323 324 326 330 334 337
245 245 246 247 249 252 255 258 262 265 269 272 275 277 280 281 282 283 284 284 285 286 286 285 284 284 285 285 285 285 286 286 284 284 287 289 289 289 289 290 293 295 295 296 297 298 298 297 296 296 296 294 292 290 290 292 294 297 298 299 300 301 303 305 305 304 302 299 298 301 305 307 309 312 315 317 317 318 319 320 322 325 328 332 334
250 251 253 254 256 258 261 263 266 269 273 275 278 279 280 281 282 283 283 284 284 285 284 284 283 284 284 284 284 284 285 285 284 284 286 288 289 288 288 291 293 292 291 292 292 292 292 293 295 298 299 299 297 293 292 292 293 295 295 296 298 299 301 302 302 301 299 296 295 298 302 304 306 309 312 315 316 316 317 318 321 323 326 328 332
256 258 259 261 263 265 267 269 271 274 276 278 280 281 281 282 282 283 283 283 283 283 283 283 284 284 284 283 283 284 285 285 283 283 284 285 286 285 285 285 285 285 286 287 288 289 290 292 295 296 296 297 297 296 295 295 297 298 297 295 295 296 299 299 299 298 297 294 292 295 298 301 303 307 310 313 314 314 315 317 319 321 322 325 328
261 263 265 268 271 273 274 275 276 278 279 279 280 281 281 282 282 282 282 282 282 282 283 283 284 284 283 283 283 284 284 284 283 283 284 284 284 284 284 283 283 285 286 287 287 288 290 292 294 294 294 294 293 294 295 297 301 302 299 295 293 294 297 298 297 297 295 292 290 292 297 300 302 305 308 310 310 311 314 316 317 318 319 322 326
267 270 273 275 277 278 279 279 279 279 279 279 280 280 280 281 281 281 281 282 282 283 283 284 284 284 284 284 284 284 284 284 283 283 284 285 285 285 286 287 287 288 288 288 288 290 291 293 294 294 294 293 291 291 293 296 300 302 300 296 295 296 298 298 297 296 294 290 288 291 295 297 299 302 304 306 307 309 312 313 314 315 316 319 322
273 275 277 278 279 279 280 280 279 278 278 278 278 278 279 279 279 280 280 281 281 281 282 282 283 283 283 283 283 283 283 282 282 283 285 286 286 287 287 288 288 288 289 290 292 293 293 294 295 295 295 294 293 291 291 294 298 300 299 297 296 297 298 298 297 296 292 288 286 289 292 294 296 298 301 303 306 307 309 310 311 311 313 316 320
275 276 277 277 277 277 277 278 277 277 277 277 277 277 277 277 278 279 279 279 280 281 281 281 280 280 281 280 280 281 281 281 282 283 284 285 286 287 287 287 287 288 289 291 293 294 295 295 296 296 297 296 294 290 289 291 296 299 299 299 299 298 298 298 297 294 290 285 284 286 290 292 294 297 299 302 304 305 305 306 307 308 311 315 318
274 274 274 274 274 275 275 275 275 275 275 276 276 275 275 276 277 278 279 279 279 280 280 280 279 281 282 283 282 282 282 282 282 283 284 284 285 285 286 286 287 289 290 292 293 294 295 295 296 297 297 297 294 292 291 292 295 298 299 300 300 300 299 298 295 292 287 283 282 284 287 291 293 295 297 299 300 302 304 305 306 308 311 314 315
272 271 271 271 272 272 273 273 274 274 275 275 275 275 275 276 278 279 280 280 279 278 278 278 279 282 284 284 283 282 282 283 283 284 284 285 286 286 287 288 289 290 292 293 294 294 294 295 296 297 298 297 295 294 293 293 295 297 299 299 299 299 299 297 294 290 285 281 280 282 287 290 292 294 295 296 298 300 301 303 304 306 309 310 311
268 269 269 270 271 271 271 272 273 273 274 275 276 276 277 279 279 280 280 280 279 278 278 279 280 279 276 275 277 279 281 283 284 285 285 286 287 288 289 289 290 291 292 294 294 294 294 294 295 297 298 297 296 294 294 294 295 297 298 298 298 298 299 297 295 291 285 279 279 283 287 290 292 293 294 294 296 298 299 300 302 304 306 308 309
265 267 268 268 269 270 270 270 271 272 273 274 276 278 279 281 281 281 280 280 280 280 280 281 282 281 277 275 277 279 282 284 285 286 286 287 288 289 289 289 290 291 293 294 294 295 295 294 295 296 296 296 296 295 295 296 296 297 299 300 299 298 297 296 295 291 285 280 280 284 287 290 292 293 293 294 295 296 298 298 300 302 304 306 307
266 268 268 267 268 268 269 270 270 271 273 275 277 278 280 280 281 280 280 280 281 281 281 282 282 282 281 280 281 282 284 285 287 287 288 289 290 290 290 291 291 292 293 294 294 295 295 295 294 294 294 295 295 295 295 295 295 295 296 298 298 298 296 293 291 289 285 281 282 284 288 291 293 293 294 295 295 296 297 297 298 299 301 302 303
268 267 267 268 268 268 269 269 270 272 273 275 277 278 278 279 279 279 280 280 281 282 282 282 282 281 281 282 283 284 285 287 288 289 289 290 291 290 291 291 292 292 293 293 294 294 295 294 294 293 293 293 294 294 294 293 292 291 292 295 297 297 295 292 289 287 285 282 283 286 289 292 293 294 295 295 295 295 295 295 296 297 298 299 300
268 267 267 268 269 270 271 271 272 273 273 274 275 276 277 278 279 280 281 282 284 284 284 284 283 283 283 284 284 284 286 288 288 289 290 290 290 290 290 291 291 291 292 293 293 293 293 294 293 293 292 292 292 292 292 291 290 290 292 295 297 298 296 294 290 288 285 284 286 288 291 292 293 294 294 293 293 293 294 294 294 295 296 297 298
268 269 269 269 270 271 271 271 271 272 272 272 273 274 275 277 280 282 283 284 284 284 284 284 283 283 284 284 284 285 286 287 287 288 289 290 290 290 290 290 290 290 291 292 292 292 292 292 293 292 292 291 290 289 289 289 289 290 292 294 297 299 299 297 293 289 287 286 288 290 291 292 292 292 291 292 292 292 292 293 294 294 295 296 297
269 269 269 269 268 268 268 268 269 270 270 270 271 273 275 277 279 282 283 284 284 284 284 284 284 284 285 285 286 286 287 287 287 288 289 289 289 289 289 289 289 290 290 290 291 291 291 292 292 292 291 290 289 288 288 287 287 287 288 291 293 295 296 295 291 287 286 286 288 289 290 289 289 289 289 290 291 290 291 291 292 293 294 295 296
268 269 269 268 268 268 268 268 267 268 268 270 271 273 276 278 280 281 282 283 284 284 285 286 286 287 287 287 288 288 288 288 289 289 289 289 289 289 289 289 290 290 290 291 291 291 292 292 292 291 290 289 289 288 287 285 284 285 287 289 291 291 291 290 287 284 282 283 285 286 286 285 286 287 288 289 289 288 289 290 291 291 292 293 294
267 268 268 268 268 267 267 267 267 268 270 272 274 276 278 280 281 282 283 283 284 285 286 287 288 289 289 290 290 290 290 290 291 292 292 292 292 292 292 292 293 293 293 293 293 293 293 293 292 291 291 290 290 288 287 285 285 285 287 288 288 288 287 286 283 280 279 280 281 282 282 282 283 284 285 286 287 287 287 288 288 289 290 291 293
265 265 265 265 265 266 267 268 270 272 274 276 278 281 282 283 283 284 284 285 286 287 288 288 289 290 291 291 292 292 293 294 295 295 295 295 295 295 295 295 296 296 295 295 295 294 294 294 293 294 294 293 292 290 288 286 285 285 285 285 285 284 282 280 278 277 277 277 279 279 279 280 281 282 283 285 286 286 286 287 287 288 290 291 292
263 264 265 265 266 268 270 272 275 277 279 281 282 283 284 284 285 285 285 286 287 288 289 290 291 292 293 294 295 296 296 297 298 298 298 298 298 298 297 297 297 296 296 295 294 294 294 294 294 295 295 295 294 292 289 286 284 283 282 281 280 279 278 277 276 276 276 276 277 278 278 278 279 280 282 283 284 285 285 286 287 288 290 292 293
264 266 268 271 272 273 274 276 277 279 280 280 281 282 283 284 285 285 286 288 289 290 291 292 294 295 297 298 298 299 299 299 300 300 299 298 298 298 298 297 297 295 294 293 293 293 293 293 293 293 293 293 294 293 290 287 284 283 282 282 281 280 279 279 279 279 279 278 277 276 275 276 278 280 281 282 283 283 283 283 285 287 289 291 292
268 268 270 272 274 276 277 277 278 278 279 280 281 282 282 284 285 286 287 289 291 292 293 295 297 299 300 301 301 302 303 303 303 302 302 301 300 299 298 296 295 295 295 295 296 295 294 294 292 291 290 290 291 292 293 292 291 290 288 286 284 283 284 284 284 283 282 281 279 277 276 276 277 279 280 281 281 281 281 282 284 286 288 290 290
272 272 272 272 272 274 276 278 279 279 279 280 281 282 283 284 285 286 288 290 292 294 295 297 299 300 302 303 305 306 307 308 308 308 308 307 304 302 300 298 297 298 299 299 299 299 297 295 292 290 289 289 290 292 293 294 294 293 292 289 288 288 288 289 289 288 287 285 284 282 280 278 276 276 276 277 278 279 281 283 284 285 286 287 288
273 274 274 274 273 274 275 276 278 279 280 281 282 282 283 284 285 286 288 290 292 294 296 298 300 302 304 305 307 308 310 311 312 313 313 312 310 308 306 304 303 302 301 300 300 300 299 298 296 294 293 293 293 294 295 294 293 293 292 291 291 292 292 291 291 290 289 288 286 284 281 279 277 276 275 276 277 279 281 282 283 284 284 285 286
272 272 273 274 274 275 275 276 276 277 279 281 282 282 283 285 286 287 289 291 292 294 296 297 299 301 302 303 304 306 308 310 310 311 312 312 312 311 310 308 305 303 302 301 301 301 302 302 301 299 298 297 297 297 297 295 293 292 292 292 293 293 293 293 293 292 290 288 286 284 281 280 279 279 279 279 280 280 281 281 281 282 282 283 285
Height
5781 5782 5783 5784 5784 5784 5785 5785 5785 5785 5785 5785 5784 5784 5784 5784 5784 5785 5785 5785 5785 5786 5786 5787 5787 5787 5787 5788 5789 5789 5790 5790 5790 5790 5791 5791 5791 5791 5790 5790 5789 5788 5787 5786 5785 5783 5781 5779 5777 5775 5773 5771 5768 5766 5764 5762 5759 5757 5754 5752 5750 5748 5745 5743 5741 5739 5736 5734 5731 5727 5724 5721 5717 5713 5709 5705 5701 5696 5692 5688 5683 5679 5674 5670 5666
5778 5779 5780 5781 5781 5782 5782 5783 5783 5783 5782 5782 5782 5782 5782 5782 5782 5782 5782 5782 5783 5784 5784 5784 5785 5785 5785 5786 5786 5787 5787 5787 5788 5788 5788 5788 5788 5788 5788 5787 5787 5786 5785 5783 5782 5780 5779 5777 5775 5773 5771 5768 5766 5764 5761 5759 5757 5754 5752 5750 5748 5745 5743 5741 5739 5736 5734 5731 5728 5725 5721 5718 5714 5710 5707 5703 5698 5694 5689 5685 5681 5676 5672 5668 5664
5775 5776 5777 5778 5779 5779 5780 5781 5781 5781 5780 5780 5780 5780 5780 5780 5780 5780 5780 5780 5781 5782 5782 5782 5782 5783 5783 5784 5784 5785 5785 5785 5785 5786 5786 5786 5786 5786 5785 5785 5784 5783 5782 5781 5779 5778 5776 5774 5772 5770 5768 5766 5764 5761 5759 5757 5754 5752 5750 5748 5745 5743 5741 5739 5736 5734 5731 5729 5725 5722 5718 5715 5712 5708 5704 5700 5696 5691 5687 5682 5678 5674 5669 5665 5661
5772 5773 5774 5775 5776 5777 5777 5778 5778 5778 5778 5777 5777 5777 5777 5777 5777 5777 5778 5778 5779 5779 5779 5779 5780 5780 5781 5782 5782 5782 5783 5783 5783 5783 5783 5783 5783 5783 5783 5782 5782 5780 5779 5778 5777 5775 5773 5771 5769 5768 5766 5764 5761 5759 5757 5754 5752 5750 5748 5745 5743 5741 5739 5736 5734 5732 5729 5726 5723 5720 5716 5712 5709 5706 5702 5698 5693 5688 5684 5679 5675 5671 5667 5663 5659
5770 5771 5771 5772 5774 5774 5774 5775 5775 5775 5775 5775 5775 5775 5775 5775 5775 5775 5775 5776 5776 5776 5777 5777 5778 5779 5779 5780 5780 5780 5780 5780 5780 5780 5781 5781 5781 5780 5780 5780 5779 5778 5776 5775 5774 5772 5771 5769 5767 5765 5763 5761 5759 5757 5754 5752 5750 5748 5745 5743 5741 5739 5736 5734 5732 5729 5727 5723 5720 5717 5714 5710 5707 5703 5699 5695 5691 5687 5682 5677 5673 5669 5665 5661 5657
5767 5768 5768 5769 5771 5771 5772 5772 5772 5773 5773 5773 5773 5773 5773 5773 5772 5773 5773 5773 5774 5774 5775 5776 5776 5777 5777 5778 5778 5778 5778 5778 5778 5778 5778 5778 5778 5778 5777 5777 5776 5775 5773 5772 5771 5770 5768 5766 5764 5762 5761 5759 5757 5754 5752 5750 5748 5745 5743 5741 5739 5736 5734 5732 5729 5727 5724 5721 5718 5714 5711 5708 5704 5700 5697 5693 5689 5685 5680 5675 5670 5666 5663 5659 5655
5765 5765 5765 5766 5768 5768 5769 5770 5770 5770 5770 5770 5771 5771 5771 5771 5771 5771 5771 5771 5772 5772 5773 5774 5775 5775 5775 5776 5776 5775 5776 5776 5776 5776 5775 5775 5775 5775 5774 5774 5773 5772 5771 5769 5768 5767 5765 5763 5761 5760 5758 5756 5754 5752 5750 5747 5745 5743 5741 5739 5736 5734 5732 5729 5727 5724 5721 5718 5715 5712 5708 5705 5702 5698 5694 5690 5686 5682 5678 5674 5670 5665 5661 5657 5654
5762 5762 5762 5764 5765 5765 5766 5767 5767 5768 5768 5768 5769 5769 5769 5769 5769 5769 5769 5770 5770 5771 5772 5773 5773 5773 5773 5773 5773 5773 5773 5773 5773 5773 5772 5772 5772 5772 5771 5771 5770 5769 5767 5766 5765 5763 5762 5760 5758 5757 5755 5753 5751 5749 5747 5745 5743 5741 5739 5736 5734 5732 5729 5727 5724 5721 5718 5715 5712 5709 5706 5703 5699 5696 5692 5688 5684 5680 5676 5672 5668 5664 5659 5655 5651
5759 5760 5760 5761 5762 5763 5763 5764 5765 5765 5766 5766 5766 5767 5767 5767 5767 5767 5767 5768 5768 5769 5770 5770 5770 5770 5771 5771 5771 5771 5771 5771 5770 5770 5769 5769 5769 5768 5768 5767 5766 5765 5764 5763 5762 5760 5758 5757 5755 5753 5752 5750 5748 5746 5744 5742 5740 5738 5736 5733 5731 5729 5727 5724 5721 5718 5715 5712 5709 5706 5703 5700 5697 5693 5690 5686 5682 5678 5674 5670 5666 5662 5657 5653 5648
5756 5757 5757 5758 5759 5760 5761 5762 5762 5763 5763 5764 5764 5765 5765 5765 5765 5765 5765 5766 5766 5766 5767 5767 5767 5768 5768 5768 5768 5768 5767 5768 5767 5766 5766 5766 5765 5765 5764 5763 5762 5761 5760 5759 5758 5756 5755 5753 5752 5750 5749 5747 5745 5743 5741 5739 5737 5736 5733 5731 5728 5726 5724 5721 5718 5716 5713 5710 5707 5703 5700 5697 5694 5691 5687 5683 5679 5676 5672 5668 5663 5659 5655 5651 5646
5753 5754 5755 5755 5757 5758 5758 5759 5759 5760 5761 5761 5762 5762 5762 5762 5763 5763 5763 5763 5764 5764 5765 5765 5765 5765 5765 5765 5765 5764 5764 5764 5763 5762 5762 5762 5761 5761 5760 5759 5759 5757 5756 5755 5754 5753 5751 5750 5748 5747 5745 5743 5741 5739 5738 5736 5734 5732 5730 5727 5725 5723 5721 5718 5715 5713 5710 5707 5704 5700 5697 5694 5691 5688 5685 5681 5677 5673 5669 5665 5661 5656 5652 5649 5645
5750 5752 5752 5753 5754 5755 5756 5756 5757 5758 5758 5759 5760 5760 5760 5760 5760 5760 5760 5761 5761 5762 5762 5762 5762 5761 5761 5761 5761 5760 5760 5760 5759 5758 5758 5758 5757 5756 5755 5755 5754 5753 5752 5751 5750 5749 5747 5746 5745 5743 5742 5740 5738 5736 5734 5732 5731 5729 5727 5724 5722 5720 5717 5715 5712 5709 5706 5703 5700 5697 5694 5690 5688 5685 5682 5678 5675 5671 5666 5661 5657 5653 5649 5645 5642
5748 5749 5750 5751 5752 5753 5753 5754 5755 5755 5756 5757 5757 5757 5757 5757 5757 5758 5758 5759 5759 5759 5759 5759 5758 5758 5758 5758 5757 5757 5756 5756 5754 5754 5754 5753 5752 5752 5751 5751 5750 5749 5748 5747 5746 5744 5743 5742 5741 5739 5738 5736 5734 5732 5730 5728 5727 5725 5723 5721 5718 5716 5714 5711 5709 5706 5703 5700 5696 5693 5690 5687 5684 5682 5679 5676 5672 5668 5663 5659 5655 5651 5646 5642 5639
5746 5747 5747 5748 5749 5750 5751 5751 5752 5753 5753 5753 5754 5754 5755 5755 5755 5755 5756 5756 5756 5756 5756 5755 5755 5754 5754 5753 5753 5753 5753 5752 5750 5749 5749 5748 5748 5747 5747 5746 5745 5744 5743 5742 5741 5740 5739 5738 5736 5735 5734 5732 5730 5728 5726 5724 5723 5721 5719 5717 5715 5713 5711 5708 5705 5702 5699 5696 5693 5690 5687 5684 5681 5678 5675 5671 5667 5664 5660 5657 5653 5649 5644 5640 5636
5744 5744 5745 5746 5746 5747 5748 5749 5749 5750 5750 5750 5750 5751 5752 5752 5753 5753 5753 5753 5753 5752 5752 5752 5751 5751 5750 5750 5750 5750 5749 5747 5746 5744 5744 5743 5743 5742 5742 5742 5741 5740 5739 5737 5736 5736 5735 5733 5732 5731 5729 5728 5726 5724 5722 5720 5719 5717 5715 5713 5711 5709 5707 5704 5701 5698 5695 5692 5689 5686 5683 5680 5677 5673 5670 5667 5664 5660 5657 5653 5650 5646 5642 5638 5634
5741 5742 5743 5743 5743 5744 5745 5746 5746 5746 5747 5747 5748 5748 5749 5749 5750 5750 5749 5749 5749 5749 5749 5748 5748 5747 5747 5746 5747 5746 5743 5741 5740 5739 5739 5739 5738 5738 5738 5737 5736 5735 5734 5732 5731 5731 5730 5729 5728 5727 5725 5723 5721 5720 5718 5716 5714 5713 5711 5709 5707 5705 5703 5700 5697 5694 5691 5688 5685 5682 5679 5676 5672 5669 5666 5663 5661 5658 5654 5651 5647 5644 5640 5637 5632
5738 5739 5740 5740 5740 5740 5741 5742 5742 5743 5743 5743 5744 5745 5745 5746 5746 5746 5746 5745 5745 5745 5745 5745 5744 5744 5743 5742 5742 5740 5738 5736 5735 5735 5735 5734 5733 5733 5734 5733 5732 5731 5730 5728 5727 5727 5726 5724 5723 5722 5720 5718 5717 5716 5714 5712 5711 5709 5707 5706 5704 5702 5699 5697 5694 5691 5688 5685 5681 5678 5675 5672 5668 5665 5663 5660 5658 5655 5652 5648 5645 5642 5638 5634 5630
5734 5735 5736 5737 5736 5736 5737 5738 5738 5739 5739 5739 5740 5741 5742 5742 5742 5742 5742 5742 5742 5742 5742 5741 5740 5740 5738 5737 5737 5736 5735 5733 5733 5734 5732 5730 5729 5729 5729 5729 5728 5727 5726 5725 5724 5723 5721 5720 5719 5717 5715 5714 5713 5712 5710 5708 5706 5705 5703 5702 5700 5698 5695 5693 5690 5687 5684 5680 5677 5674 5671 5668 5665 5662 5660 5657 5654 5651 5648 5645 5642 5639 5635 5631 5627
5730 5731 5732 5733 5733 5733 5733 5734 5735 5735 5735 5736 5737 5738 5738 5738 5739 5739 5739 5739 5738 5738 5738 5737 5736 5736 5735 5733 5733 5733 5732 5731 5730 5730 5729 5727 5726 5725 5725 5725 5723 5721 5720 5720 5719 5718 5717 5715 5714 5712 5711 5710 5709 5707 5706 5704 5702 5701 5699 5698 5696 5694 5691 5688 5686 5683 5680 5677 5673 5670 5667 5664 5662 5659 5656 5653 5650 5647 5645 5642 5639 5636 5632 5629 5625
5726 5727 5728 5729 5729 5729 5729 5730 5731 5731 5731 5732 5733 5734 5734 5734 5735 5735 5735 5735 5735 5734 5734 5733 5733 5732 5732 5731 5730 5729 5728 5727 5726 5725 5724 5723 5722 5722 5721 5720 5718 5717 5715 5715 5714 5713 5712 5711 5710 5708 5707 5705 5704 5703 5701 5700 5698 5696 5695 5693 5692 5689 5687 5684 5681 5679 5676 5673 5670 5667 5664 5661 5659 5656 5653 5650 5647 5644 5641 5639 5636 5633 5630 5627 5623
5723 5724 5725 5725 5726 5726 5726 5727 5727 5728 5728 5729 5729 5730 5731 5731 5731 5731 5731 5731 5731 5731 5730 5729 5729 5729 5728 5727 5727 5726 5725 5723 5721 5721 5720 5719 5718 5717 5716 5715 5714 5713 5711 5710 5710 5709 5708 5707 5705 5704 5702 5701 5699 5698 5697 5695 5694 5692 5690 5689 5687 5685 5682 5679 5677 5675 5672 5669 5666 5663 5660 5658 5656 5653 5651 5648 5645 5642 5639 5636 5634 5630 5627 5624 5621
5720 5720 5721 5722 5722 5723 5723 5724 5724 5725 5725 5726 5726 5727 5727 5727 5728 5728 5728 5728 5728 5727 5726 5726 5725 5724 5723 5723 5722 5722 5721 5719 5717 5716 5715 5714 5713 5712 5711 5710 5709 5708 5707 5705 5705 5705 5704 5702 5700 5699 5697 5696 5695 5694 5692 5691 5689 5687 5685 5684 5682 5680 5677 5674 5672 5670 5667 5665 5662 5660 5657 5655 5653 5651 5648 5645 5643 5640 5637 5634 5631 5628 5624 5621 5618
5716 5717 5717 5718 5720 5720 5720 5721 5721 5722 5722 5723 5723 5724 5724 5724 5724 5724 5724 5724 5724 5723 5723 5722 5721 5720 5719 5718 5717 5717 5716 5714 5713 5712 5711 5710 5709 5708 5707 5706 5705 5703 5702 5701 5701 5701 5699 5698 5695 5693 5692 5692 5690 5689 5687 5686 5684 5682 5681 5679 5677 5675 5673 5670 5668 5665 5663 5661 5659 5656 5654 5652 5650 5648 5646 5643 5640 5637 5635 5632 5629 5625 5622 5618 5615
5713 5714 5715 5716 5716 5717 5717 5718 5718 5719 5719 5720 5720 5720 5721 5721 5720 5720 5720 5720 5719 5718 5718 5717 5716 5715 5714 5712 5711 5711 5711 5710 5709 5708 5706 5705 5705 5704 5702 5701 5700 5699 5698 5698 5697 5696 5695 5693 5690 5688 5688 5687 5685 5683 5682 5680 5679 5677 5676 5674 5673 5670 5668 5666 5663 5661 5659 5657 5655 5653 5651 5649 5646 5645 5643 5640 5637 5635 5632 5630 5627 5623 5620 5616 5613
5711 5712 5712 5713 5714 5714 5715 5715 5716 5716 5716 5717 5717 5717 5717 5716 5716 5716 5715 5715 5714 5713 5712 5711 5710 5710 5708 5707 5706 5706 5705 5705 5704 5703 5701 5700 5700 5699 5698 5696 5695 5695 5694 5693 5692 5690 5689 5687 5685 5683 5683 5682 5680 5678 5677 5675 5674 5673 5671 5669 5668 5666 5663 5661 5659 5656 5654 5653 5651 5649 5647 5645 5643 5641 5639 5637 5634 5632 5630 5627 5624 5622 5619 5615 5611
5708 5709 5710 5711 5711 5712 5712 5713 5713 5713 5713 5713 5713 5713 5713 5712 5711 5711 5710 5709 5708 5708 5707 5706 5705 5704 5703 5702 5701 5701 5701 5700 5699 5697 5696 5696 5695 5694 5693 5691 5690 5690 5689 5688 5687 5685 5684 5682 5680 5679 5678 5677 5675 5673 5672 5671 5669 5668 5667 5665 5663 5661 5659 5657 5654 5652 5650 5648 5647 5645 5643 5641 5639 5637 5636 5634 5631 5629 5627 5625 5622 5620 5617 5614 5610
5705 5706 5707 5708 5708 5709 5709 5709 5709 5709 5709 5709 5708 5708 5708 5707 5706 5705 5705 5704 5703 5703 5702 5701 5700 5700 5699 5698 5697 5696 5696 5696 5694 5692 5691 5691 5690 5689 5687 5687 5686 5685 5684 5683 5681 5680 5678 5677 5676 5674 5673 5671 5670 5668 5667 5666 5665 5663 5662 5660 5658 5656 5654 5652 5650 5648 5646 5644 5642 5641 5639 5637 5635 5634 5632 5630 5628 5626 5624 5622 5620 5617 5614 5612 5609
5702 5703 5704 5704 5704 5705 5705 5705 5705 5705 5705 5704 5704 5704 5703 5702 5701 5700 5699 5698 5698 5697 5697 5696 5695 5695 5695 5693 5692 5692 5691 5691 5690 5688 5686 5685 5685 5684 5683 5682 5681 5680 5679 5678 5676 5675 5674 5672 5671 5670 5668 5667 5665 5664 5662 5661 5660 5658 5657 5655 5653 5651 5649 5647 5645 5643 5641 5639 5638 5636 5634 5633 5632 5630 5629 5627 5625 5623 5621 5619 5617 5614 5612 5610 5607
5699 5700 5700 5700 5700 5700 5700 5701 5701 5701 5700 5700 5699 5699 5697 5696 5695 5695 5694 5693 5693 5692 5691 5691 5690 5690 5690 5688 5688 5687 5686 5686 5685 5683 5681 5680 5680 5679 5678 5678 5676 5675 5674 5673 5671 5670 5669 5668 5666 5665 5664 5662 5661 5659 5658 5656 5655 5653 5651 5650 5648 5646 5644 5642 5640 5638 5636 5635 5633 5632 5630 5629 5628 5627 5625 5624 5622 5620 5618 5616 5614 5612 5610 5607 5605
5695 5695 5695 5695 5695 5695 5696 5696 5696 5696 5695 5695 5694 5693 5691 5691 5690 5690 5689 5688 5687 5687 5686 5686 5685 5685 5684 5683 5683 5682 5681 5680 5679 5677 5676 5676 5676 5675 5673 5672 5671 5670 5669 5668 5666 5665 5664 5663 5661 5660 5659 5657 5656 5654 5653 5652 5650 5648 5646 5644 5642 5640 5639 5637 5635 5633 5631 5630 5629 5627 5626 5625 5624 5623 5622 5620 5618 5616 5614 5613 5611 5609 5607 5605 5602
5691 5691 5691 5691 5691 5691 5691 5691 5691 5690 5690 5689 5688 5687 5686 5685 5685 5685 5684 5683 5683 5682 5682 5681 5680 5680 5679 5678 5677 5677 5676 5675 5674 5672 5671 5671 5671 5670 5669 5668 5666 5665 5664 5663 5662 5661 5659 5658 5656 5654 5653 5652 5650 5649 5647 5646 5645 5643 5641 5640 5638 5636 5634 5632 5630 5628 5627 5625 5624 5623 5621 5620 5619 5619 5618 5617 5615 5613 5611 5609 5608 5606 5604 5602 5600
5686 5686 5686 5686 5686 5686 5685 5685 5685 5685 5684 5684 5683 5683 5682 5681 5680 5680 5680 5679 5678 5678 5677 5677 5676 5675 5674 5673 5672 5672 5671 5670 5669 5668 5667 5666 5666 5665 5664 5663 5662 5660 5659 5657 5657 5655 5654 5652 5651 5649 5647 5646 5645 5643 5642 5641 5640 5638 5636 5635 5633 5631 5629 5627 5625 5623 5622 5621 5620 5619 5617 5616 5615 5614 5614 5612 5611 5609 5607 5606 5605 5603 5601 5599 5597
5682 5682 5681 5681 5681 5681 5681 5680 5680 5680 5680 5679 5679 5678 5678 5677 5676 5676 5676 5675 5674 5673 5673 5672 5671 5670 5669 5668 5667 5666 5666 5665 5664 5663 5662 5662 5661 5660 5659 5658 5657 5655 5654 5653 5652 5650 5648 5647 5646 5644 5642 5641 5639 5638 5637 5636 5634 5633 5631 5629 5628 5626 5624 5623 5621 5619 5617 5616 5615 5614 5613 5612 5611 5610 5609 5608 5607 5605 5604 5602 5601 5599 5598 5596 5594
5678 5677 5677 5677 5677 5676 5676 5676 5675 5675 5675 5675 5674 5674 5674 5673 5672 5672 5671 5671 5670 5669 5668 5667 5666 5665 5665 5664 5663 5662 5661 5660 5659 5658 5658 5657 5657 5656 5654 5653 5652 5651 5649 5648 5646 5645 5643 5642 5640 5639 5637 5635 5634 5633 5632 5630 5629 5627 5626 5624 5623 5621 5619 5618 5616 5614 5613 5612 5611 5610 5608 5607 5607 5606 5605 5604 5603 5601 5600 5598 5597 5595 5594 5592 5591
5673 5672 5672 5672 5672 5672 5671 5671 5670 5670 5670 5670 5670 5669 5669 5669 5668 5667 5667 5666 5666 5665 5664 5662 5662 5662 5661 5660 5658 5657 5656 5655 5655 5654 5653 5652 5652 5650 5649 5648 5647 5645 5644 5643 5641 5640 5638 5637 5635 5634 5632 5630 5629 5628 5626 5625 5624 5622 5621 5620 5618 5617 5614 5612 5611 5609 5608 5607 5606 5605 5604 5603 5602 5601 5601 5600 5599 5597 5596 5594 5593 5592 5590 5589 5587
5668 5667 5667 5667 5667 5667 5667 5667 5666 5666 5665 5665 5665 5664 5664 5664 5664 5663 5662 5661 5661 5660 5659 5658 5658 5658 5657 5655 5653 5652 5651 5651 5650 5649 5648 5648 5647 5646 5645 5643 5642 5640 5639 5637 5636 5634 5633 5631 5630 5628 5627 5625 5624 5622 5621 5620 5619 5617 5616 5615 5613 5611 5609 5607 5605 5604 5603 5601 5601 5600 5600 5599 5598 5597 5596 5595 5594 5593 5592 5591 5589 5588 5587 5585 5584
5663 5662 5662 5662 5663 5663 5663 5662 5662 5661 5661 5660 5660 5659 5659 5659 5659 5658 5657 5656 5656 5656 5655 5654 5654 5653 5653 5651 5649 5648 5647 5646 5646 5644 5643 5643 5642 5641 5640 5638 5636 5635 5633 5632 5630 5629 5627 5626 5624 5623 5621 5620 5618 5617 5616 5615 5614 5613 5611 5609 5608 5606 5604 5602 5600 5598 5597 5596 5596 5596 5595 5594 5593 5592 5592 5591 5590 5589 5588 5587 5585 5584 5583 5581 5580
5659 5658 5657 5658 5658 5658 5658 5657 5657 5657 5656 5656 5656 5655 5655 5654 5654 5653 5653 5652 5651 5651 5651 5650 5650 5649 5647 5646 5645 5644 5642 5642 5641 5639 5638 5638 5637 5636 5634 5633 5631 5629 5628 5626 5625 5623 5622 5620 5619 5617 5616 5614 5613 5612 5610 5609 5609 5608 5606 5604 5602 5600 5598 5596 5594 5593 5592 5592 5592 5591 5591 5590 5589 5588 5587 5586 5585 5584 5583 5582 5581 5580 5579 5578 5576
5654 5653 5653 5654 5654 5654 5653 5653 5653 5653 5652 5652 5651 5651 5650 5650 5649 5649 5648 5648 5647 5647 5646 5646 5645 5644 5642 5641 5641 5639 5638 5637 5636 5634 5633 5633 5631 5630 5629 5627 5625 5623 5622 5620 5619 5618 5616 5615 5613 5612 5610 5609 5607 5606 5605 5604 5603 5602 5600 5598 5597 5595 5592 5590 5589 5588 5587 5587 5587 5587 5586 5585 5584 5583 5582 5581 5580 5580 5579 5578 5577 5576 5575 5574 5573
5648 5648 5649 5649 5649 5649 5648 5648 5648 5648 5648 5647 5647 5646 5645 5645 5645 5644 5644 5643 5642 5642 5641 5641 5640 5639 5637 5636 5635 5634 5634 5633 5631 5629 5628 5627 5625 5624 5623 5621 5619 5618 5616 5614 5613 5612 5611 5609 5608 5606 5605 5603 5602 5601 5600 5599 5597 5596 5594 5593 5591 5589 5587 5585 5584 5583 5583 5583 5583 5582 5581 5580 5579 5578 5577 5576 5575 5575 5574 5573 5572 5571 5570 5569 5568
5643 5643 5644 5644 5644 5644 5644 5644 5644 5644 5643 5643 5642 5642 5641 5640 5640 5639 5639 5638 5637 5636 5636 5635 5635 5634 5633 5631 5629 5629 5629 5628 5626 5625 5623 5622 5620 5618 5617 5615 5614 5612 5610 5609 5607 5606 5605 5603 5602 5600 5599 5598 5596 5595 5594 5593 5591 5590 5589 5587 5586 5584 5582 5581 5579 5579 5579 5579 5579 5578 5577 5576 5575 5573 5572 5571 5571 5570 5569 5568 5568 5567 5566 5565 5564
5638 5639 5639 5640 5640 5640 5640 5640 5640 5639 5639 5638 5638 5637 5637 5636 5635 5635 5634 5633 5632 5631 5631 5630 5629 5629 5629 5627 5624 5623 5623 5622 5621 5620 5618 5616 5614 5612 5611 5609 5608 5606 5604 5603 5601 5600 5599 5597 5596 5594 5593 5592 5590 5589 5589 5587 5585 5584 5583 5582 5580 5579 5577 5576 5575 5574 5574 5574 5574 5573 5572 5571 5569 5568 5567 5566 5566 5565 5564 5563 5563 5562 5561 5560 5559
5634 5635 5635 5635 5636 5636 5636 5635 5635 5635 5634 5634 5633 5633 5632 5632 5631 5630 5630 5628 5627 5627 5626 5625 5624 5623 5623 5622 5619 5617 5617 5616 5615 5614 5613 5611 5608 5606 5604 5603 5602 5600 5598 5597 5595 5593 5592 5591 5590 5589 5587 5586 5584 5584 5583 5581 5579 5578 5577 5576 5575 5574 5572 5571 5570 5569 5569 5569 5569 5568 5567 5565 5564 5563 5562 5561 5560 5560 5559 5559 5558 5557 5556 5555 5554
5630 5631 5631 5631 5631 5631 5631 5630 5630 5630 5630 5629 5628 5628 5628 5627 5626 5626 5625 5624 5623 5622 5621 5620 5619 5618 5617 5615 5614 5612 5610 5609 5609 5608 5606 5605 5603 5600 5597 5596 5595 5594 5592 5591 5589 5588 5586 5585 5584 5583 5581 5580 5579 5577 5576 5575 5573 5572 5571 5570 5569 5568 5567 5565 5564 5564 5563 5563 5563 5562 5561 5560 5559 5558 5557 5556 5555 5554 5554 5554 5553 5553 5552 5551 5550
5627 5626 5627 5627 5627 5626 5626 5626 5626 5625 5625 5624 5624 5623 5623 5622 5622 5621 5620 5619 5618 5617 5616 5615 5614 5613 5611 5610 5608 5606 5605 5603 5602 5601 5600 5598 5597 5594 5592 5590 5589 5588 5587 5585 5584 5582 5581 5580 5578 5577 5576 5574 5573 5571 5570 5569 5567 5566 5565 5564 5563 5562 5561 5560 5559 5558 5558 5557 5557 5556 5555 5555 5553 5552 5551 5551 5550 5549 5549 5549 5548 5548 5547 5546 5545
5622 5622 5622 5622 5622 5622 5622 5622 5621 5621 5620 5620 5619 5619 5618 5617 5616 5615 5614 5614 5613 5612 5611 5610 5608 5607 5606 5605 5603 5601 5600 5598 5596 5595 5594 5592 5590 5589 5587 5585 5584 5583 5582 5580 5579 5578 5576 5574 5573 5572 5571 5569 5567 5566 5564 5563 5562 5561 5559 5558 5557 5556 5555 5554 5553 5553 5552 5552 5551 5550 5550 5549 5548 5547 5546 5546 5545 5544 5544 5544 5543 5543 5542 5541 5540
5618 5618 5618 5617 5617 5617 5617 5617 5617 5616 5616 5615 5615 5614 5613 5612 5611 5610 5609 5609 5608 5607 5606 5604 5603 5602 5601 5600 5598 5596 5594 5593 5591 5590 5588 5587 5585 5583 5582 5581 5579 5578 5577 5575 5574 5573 5571 5570 5568 5567 5566 5564 5563 5561 5560 5558 5557 5556 5554 5553 5552 5551 5550 5549 5548 5548 5547 5546 5546 5545 5544 5544 5543 5542 5541 5541 5540 5540 5539 5539 5539 5538 5537 5537 5536
5613 5614 5614 5614 5613 5612 5612 5612 5612 5611 5611 5610 5610 5609 5608 5608 5607 5605 5605 5604 5603 5602 5601 5599 5598 5597 5596 5595 5593 5591 5589 5588 5587 5585 5583 5581 5580 5579 5578 5576 5575 5573 5572 5570 5569 5567 5566 5564 5563 5562 5560 5559 5558 5556 5555 5554 5552 5551 5549 5548 5547 5546 5545 5544 5543 5543 5542 5541 5541 5540 5540 5539 5538 5537 5536 5536 5535 5535 5534 5534 5534 5534 5533 5532 5531
5608 5609 5609 5610 5609 5608 5608 5607 5607 5606 5606 5606 5605 5604 5604 5603 5603 5601 5600 5600 5599 5597 5596 5595 5594 5593 5591 5590 5589 5587 5586 5584 5583 5581 5580 5578 5576 5575 5574 5572 5570 5569 5567 5565 5564 5562 5561 5559 5558 5556 5555 5554 5553 5551 5550 5549 5548 5546 5545 5543 5542 5541 5541 5540 5539 5538 5537 5537 5536 5535 5535 5534 5534 5533 5532 5531 5530 5530 5530 5530 5529 5529 5528 5527 5526
5604 5604 5604 5604 5604 5604 5604 5603 5602 5601 5601 5601 5601 5600 5599 5599 5598 5597 5596 5596 5595 5594 5592 5591 5590 5589 5588 5587 5585 5584 5583 5581 5579 5578 5577 5575 5573 5572 5570 5568 5566 5565 5563 5561 5560 5558 5556 5555 5553 5552 5550 5549 5547 5546 5545 5544 5543 5542 5540 5539 5538 5537 5536 5535 5534 5533 5532 5532 5531 5530 5530 5529 5528 5528 5527 5527 5526 5526 5525 5525 5524 5524 5523 5522 5521
5600 5600 5600 5600 5599 5599 5599 5599 5598 5597 5597 5596 5596 5595 5595 5595 5594 5593 5592 5592 5591 5590 5589 5588 5587 5585 5584 5583 5582 5581 5580 5578 5577 5575 5574 5572 5570 5568 5566 5565 5563 5561 5559 5557 5556 5554 5552 5551 5549 5547 5546 5544 5543 5542 5540 5539 5538 5537 5536 5535 5534 5533 5531 5530 5529 5528 5528 5527 5526 5526 5525 5524 5524 5523 5523 5522 5522 5521 5521 5520 5520 5519 5518 5517 5516